Theta_e
332 331 330 325 323 321 318 323 302 308 307 297 299 301 300 314 313 311 311 313 310 316 316 316 314 314 312 304 301 301 300 300 297 302 300 304 311 312 308 310 312 312 315 319 322 333 339 341 342 343 343 343 343 343 343 341 342 341 341 341 341 341 341 340 340 340 341 340 340 339 338 339 338 338 338 338 339 340 340 339 338 339 339 339 339 338 338 338 340 340 340 339 338 337 337 338 338
328 328 328 326 321 320 311 319 303 301 300 296 298 302 307 310 310 309 310 312 313 315 315 313 313 310 308 307 307 308 300 299 300 303 303 306 310 310 307 309 311 310 313 316 319 330 334 337 340 341 342 343 343 342 342 341 341 341 341 340 339 339 339 338 338 338 338 338 338 338 338 338 338 338 336 336 337 337 338 338 337 336 337 338 337 336 336 336 336 337 338 338 337 337 336 336 335
326 326 327 322 317 316 317 316 298 297 296 293 297 302 312 308 308 311 312 314 317 318 318 314 309 305 313 310 303 303 296 301 300 302 305 304 300 303 307 308 310 310 312 313 315 323 332 334 337 340 341 342 342 340 340 339 339 340 340 339 338 338 337 337 337 336 336 336 336 336 336 336 336 336 335 334 335 335 336 336 337 336 335 336 336 335 335 335 335 334 335 335 333 334 334 333 333
328 328 325 321 311 320 307 305 299 296 293 297 299 307 309 309 310 312 315 316 316 319 317 309 304 304 305 297 299 305 298 298 299 299 300 300 300 305 306 307 308 308 309 310 312 319 329 332 333 336 338 339 340 339 338 338 338 337 337 337 336 335 334 334 334 334 334 334 334 333 334 333 333 334 333 333 332 333 333 332 332 332 332 332 331 331 331 330 330 330 330 331 331 329 328 328 328
329 331 324 319 315 304 307 304 299 296 291 297 296 306 309 311 311 312 314 316 315 313 315 310 305 303 299 296 298 295 292 300 300 300 300 301 303 304 304 305 306 305 306 308 309 315 323 329 331 333 335 336 337 337 336 335 335 334 334 334 333 332 332 332 332 331 331 331 331 330 330 330 330 331 331 331 330 329 329 328 328 327 327 327 326 326 327 327 327 326 327 328 327 326 325 326 325
328 324 323 318 309 320 309 300 297 295 298 303 301 305 309 312 311 313 314 314 311 311 309 306 307 300 295 295 297 293 297 293 299 299 299 299 301 303 302 302 304 302 303 305 307 311 317 325 328 331 333 334 334 335 334 334 333 332 332 331 331 330 330 329 329 329 329 328 328 328 328 327 328 328 328 328 327 327 326 325 325 325 325 325 324 324 324 324 325 324 323 323 323 322 322 323 323
322 319 315 314 319 317 301 298 298 297 303 305 305 307 310 312 313 314 313 312 311 311 311 304 302 301 296 296 297 299 300 300 297 298 299 300 300 301 301 301 301 301 301 303 305 307 313 321 324 327 329 330 331 332 331 331 331 330 330 329 329 328 327 327 327 327 327 327 326 325 325 326 326 325 326 325 325 325 325 324 324 324 323 323 323 322 322 322 322 322 321 321 322 322 322 322 322
330 316 313 304 301 303 298 302 299 302 302 309 309 309 312 313 315 312 309 309 305 304 307 308 304 298 294 303 292 298 300 300 299 300 300 300 299 300 300 300 299 300 301 301 302 304 310 316 319 322 325 327 328 329 329 329 329 328 328 328 327 326 325 325 325 325 324 324 323 323 323 323 323 323 323 323 323 323 323 323 323 322 321 320 321 320 320 322 321 321 321 321 321 322 321 320 321
320 314 323 311 299 304 298 298 299 303 304 309 309 313 315 314 314 310 307 309 307 306 303 304 309 302 295 295 293 297 298 301 300 300 299 299 297 298 299 298 297 297 298 301 301 301 303 310 314 316 319 322 324 325 325 325 325 325 325 324 324 323 323 323 322 322 322 322 321 321 321 321 320 320 321 320 321 321 321 321 321 320 320 318 319 320 320 320 320 320 320 320 319 320 320 319 319
315 317 306 308 308 296 297 297 296 300 304 309 309 309 311 312 313 311 307 306 305 305 304 304 303 297 298 294 295 295 297 300 299 298 298 298 298 297 297 298 297 296 296 298 299 299 300 305 309 311 313 315 317 318 320 320 320 321 321 321 321 320 320 319 319 319 319 318 318 318 318 318 318 318 318 318 319 318 318 318 319 318 318 318 318 318 318 318 318 318 319 319 319 318 318 318 317
310 317 317 304 299 298 298 298 298 302 305 308 309 312 312 312 312 310 309 305 307 304 303 306 300 298 296 292 292 301 300 300 298 295 298 298 297 296 296 297 297 297 296 296 296 298 298 299 303 306 308 310 311 312 314 315 316 317 317 317 317 317 316 316 316 316 316 316 316 316 316 316 315 315 315 315 316 317 316 316 316 316 316 317 317 317 317 317 317 317 318 317 316 316 317 317 315
307 308 311 299 300 298 298 298 300 302 305 307 306 311 312 312 312 308 308 304 302 300 299 301 300 301 296 294 293 298 299 298 298 298 298 298 297 296 295 296 295 295 296 296 296 295 295 297 298 301 302 305 306 308 309 310 312 312 313 313 313 313 314 313 313 312 312 312 313 313 313 313 312 313 313 312 312 313 314 314 314 314 314 315 315 315 316 316 316 316 316 315 316 314 314 314 313
310 309 305 300 299 300 299 299 299 301 302 304 306 310 313 311 306 305 304 304 303 301 298 299 306 306 295 293 297 297 294 297 299 299 299 298 297 297 296 295 294 294 293 294 295 295 295 294 294 297 299 300 301 304 305 306 307 308 309 309 309 310 310 310 310 310 309 309 308 309 309 310 310 310 310 310 309 309 310 311 312 312 312 313 313 313 314 315 314 314 314 314 313 312 312 312 312
312 311 309 299 303 300 300 300 301 301 300 306 309 309 309 308 308 307 304 298 297 297 297 298 303 302 294 296 296 294 293 297 298 299 299 299 298 297 295 295 293 292 292 292 291 294 294 296 295 294 294 295 295 297 300 302 303 304 305 306 306 307 307 307 307 307 307 306 305 304 305 307 307 307 307 307 308 307 306 308 309 310 310 310 311 311 312 313 312 312 312 312 311 311 310 309 310
311 315 309 304 301 299 301 297 299 300 300 307 308 305 303 304 305 302 302 295 294 300 300 298 294 298 294 296 293 290 292 296 297 298 298 299 297 296 295 295 294 293 292 291 291 291 291 294 296 295 293 292 292 294 294 296 300 301 301 302 303 303 303 304 304 304 304 303 303 302 302 302 303 304 304 304 304 305 304 304 306 308 308 308 308 309 309 310 310 310 310 309 309 308 309 307 307
314 312 308 302 298 298 300 300 302 299 300 308 306 304 301 301 303 300 299 301 294 294 295 290 293 291 291 290 289 291 293 295 297 297 297 296 297 295 295 293 294 293 292 290 290 290 291 291 291 293 293 292 292 292 292 293 295 297 298 299 300 300 300 300 301 301 301 301 301 300 300 297 297 297 301 298 301 301 302 300 302 305 306 306 306 306 307 308 308 309 307 307 307 306 304 304 303
319 318 303 302 297 300 300 300 302 297 303 307 307 307 300 296 300 298 300 298 292 289 288 289 289 291 288 289 291 292 293 295 296 295 294 294 294 294 293 292 292 291 291 289 289 289 290 290 290 290 291 291 292 292 292 292 293 294 294 296 297 297 297 297 297 297 297 298 297 298 297 294 293 293 294 295 298 296 299 299 299 302 304 303 303 304 304 305 306 306 305 305 304 302 301 301 301
315 306 304 300 300 300 303 303 304 306 304 306 307 305 300 296 299 298 299 293 292 290 288 289 289 288 290 291 292 292 292 291 292 291 290 291 291 290 290 290 288 288 290 290 289 290 289 289 289 290 290 290 290 290 290 291 291 291 290 291 292 292 294 294 292 292 295 292 296 294 293 293 292 292 293 295 294 295 295 298 297 299 301 301 301 301 301 302 303 303 303 302 301 300 299 293 295
308 304 302 298 302 303 308 307 307 305 304 308 307 307 305 300 301 301 296 293 293 290 290 289 287 288 289 290 290 290 291 290 289 289 288 287 288 287 287 288 287 286 286 287 288 289 289 288 288 289 289 290 290 289 289 289 289 289 289 290 290 291 291 290 289 290 290 291 292 292 292 291 291 292 292 294 293 295 294 296 295 296 297 299 297 297 298 299 299 300 300 299 298 298 292 291 291
308 305 300 301 305 306 307 308 308 307 306 301 300 301 302 303 303 304 297 295 295 291 288 288 287 286 287 288 288 288 288 288 289 288 287 286 287 287 286 286 286 287 286 286 286 287 287 287 287 287 289 290 289 290 289 288 288 288 288 288 288 288 288 288 288 288 288 289 290 290 290 291 290 290 293 293 293 290 290 293 293 293 293 294 295 292 294 294 295 296 296 296 295 294 290 289 290
308 305 301 303 306 304 306 310 309 309 309 303 301 300 297 299 303 299 295 292 287 286 289 292 287 286 286 286 286 286 286 286 286 287 286 286 286 286 286 285 285 286 287 287 287 286 286 286 288 288 288 289 288 288 289 289 288 287 287 287 287 287 287 286 286 286 287 287 288 289 289 290 289 288 289 289 289 288 287 287 287 287 287 287 291 286 287 288 288 287 288 290 288 289 289 288 289
308 303 306 306 307 304 308 308 309 306 307 304 302 299 295 299 294 296 299 299 289 287 287 289 289 288 286 285 286 286 285 284 285 285 285 285 284 284 285 285 286 285 286 284 285 287 286 288 286 286 287 287 287 286 286 287 287 286 286 287 286 286 286 286 286 286 285 286 287 288 288 287 287 287 288 288 288 287 286 286 285 286 285 286 288 285 286 286 286 286 286 286 287 288 288 288 288
302 306 307 308 308 305 308 307 307 307 305 302 299 298 298 294 291 291 288 287 285 288 288 287 287 287 287 287 286 284 284 283 283 283 284 284 284 284 284 284 284 283 283 283 284 284 285 285 287 286 285 286 286 286 286 286 286 286 286 287 286 285 285 285 285 285 285 285 285 287 286 286 286 286 286 287 286 286 286 285 284 284 284 284 286 285 284 285 285 285 285 285 286 287 287 287 287
307 302 306 306 308 306 308 304 303 301 300 298 300 302 296 296 291 289 285 285 286 286 286 286 286 287 287 285 285 283 283 283 282 283 284 283 284 283 284 283 283 284 283 283 284 284 284 284 285 285 285 285 285 286 285 285 285 285 286 286 285 286 285 284 284 284 284 284 285 285 286 285 285 285 285 285 285 285 285 285 285 284 283 283 284 284 283 284 284 284 284 284 285 285 286 285 285
304 303 306 306 307 306 305 302 300 299 299 300 301 296 293 296 291 289 284 286 286 285 286 285 285 285 284 284 283 283 283 283 282 283 283 284 284 284 285 284 284 285 283 283 283 283 284 284 284 284 285 285 285 285 285 284 284 284 284 284 284 286 283 283 283 283 282 283 283 284 285 283 283 283 283 283 284 284 284 284 284 284 283 283 283 283 283 283 283 283 283 283 283 284 284 284 284
306 306 308 307 305 305 303 302 300 299 299 300 294 291 292 290 291 285 285 286 287 286 285 284 284 283 282 282 282 282 282 282 282 282 282 282 282 282 281 282 281 281 282 282 282 282 283 284 284 284 284 284 284 284 284 284 284 283 283 283 283 284 283 283 283 282 282 282 281 282 283 283 282 282 282 283 282 282 283 283 283 283 282 283 282 282 282 282 282 283 282 282 282 283 283 283 283
308 306 307 306 304 304 304 301 300 300 298 298 293 291 291 292 292 285 285 286 286 285 284 285 284 283 282 281 281 281 280 280 281 282 282 281 281 280 281 281 280 280 281 281 281 282 284 283 283 284 284 285 284 283 283 283 283 282 283 282 282 282 282 282 281 281 281 281 281 281 282 282 282 282 282 282 282 281 281 282 282 282 282 282 282 281 282 282 282 282 282 281 281 282 283 283 282
306 307 306 305 305 304 304 303 300 300 297 300 295 291 292 293 291 291 284 285 286 284 284 283 282 281 281 281 280 280 280 280 280 280 280 279 279 280 279 280 280 280 281 280 281 282 283 283 283 283 283 284 283 283 283 282 282 282 282 281 281 281 282 281 280 280 281 280 280 280 280 281 282 281 281 281 281 280 280 280 281 281 281 281 281 281 281 281 281 281 282 281 281 281 282 282 281
306 306 300 303 304 302 303 301 301 302 299 300 298 292 291 289 291 286 285 285 285 283 283 283 282 281 280 280 280 280 280 280 280 279 279 279 280 280 279 281 281 280 281 281 281 282 282 282 283 283 283 283 282 282 282 282 282 282 281 281 281 282 280 280 279 279 279 280 280 280 280 280 280 280 280 280 281 280 280 279 279 280 280 280 281 281 280 280 280 280 280 281 280 280 281 281 281
306 304 301 300 301 299 304 304 303 301 299 300 298 289 295 291 287 285 286 285 285 283 282 282 280 280 280 279 279 279 279 279 279 279 279 279 280 280 279 280 281 281 280 281 281 281 282 283 283 283 283 282 282 282 282 281 281 281 281 281 281 280 280 279 279 279 279 279 279 279 279 279 279 279 280 279 279 279 279 278 279 279 279 280 280 280 279 279 278 278 279 279 280 279 278 280 279
298 302 303 295 294 294 303 303 303 299 299 299 300 290 290 285 285 286 286 286 285 283 282 282 281 280 280 279 279 279 279 279 278 278 279 279 279 280 279 280 280 281 281 281 280 281 282 282 282 282 282 282 282 281 281 281 281 281 280 280 280 280 279 279 278 278 278 278 278 278 278 279 278 278 279 279 278 278 278 277 278 278 279 280 279 279 278 278 277 277 278 277 278 277 278 279 278
300 296 292 296 293 295 301 305 302 298 297 301 299 290 294 288 285 285 286 286 286 284 283 282 282 281 280 279 279 279 278 278 278 278 278 279 279 279 279 279 280 280 280 280 281 281 281 282 282 281 281 281 281 281 281 280 280 280 280 281 279 279 279 278 278 278 278 277 277 277 278 278 277 277 277 278 277 277 277 276 277 278 279 279 278 278 278 276 276 277 277 277 276 276 277 277 277
298 293 291 290 292 295 298 302 304 304 298 300 298 293 291 286 286 286 287 286 286 286 284 283 283 282 281 280 279 278 277 277 278 278 279 279 279 279 279 279 279 280 280 280 280 280 280 281 281 281 281 281 281 281 281 280 280 280 279 279 279 279 278 277 277 277 277 277 276 276 277 277 276 276 277 277 277 277 276 276 276 277 278 277 277 276 276 276 275 276 275 277 276 275 275 276 275
292 296 290 294 291 293 292 301 303 304 298 294 298 294 294 287 285 286 287 287 286 287 285 284 283 282 281 280 279 278 277 277 277 277 278 279 279 279 279 280 279 279 280 280 281 280 280 280 281 281 281 281 281 280 280 280 280 280 279 279 279 278 278 277 277 277 276 276 276 275 276 276 276 276 276 276 276 277 276 276 275 276 276 276 276 275 274 275 274 274 273 275 276 275 275 275 274
289 290 289 291 294 295 292 291 299 301 300 296 295 294 295 285 286 286 286 287 287 287 286 285 284 282 282 281 280 278 278 277 277 278 278 278 278 278 278 278 278 279 279 279 280 280 280 280 280 281 280 280 280 281 281 280 280 279 279 278 278 277 277 277 277 276 276 275 275 275 275 275 276 275 275 275 274 275 275 275 275 275 275 275 275 274 273 274 273 273 272 273 275 275 275 274 273
293 293 293 292 288 290 291 296 299 300 297 295 294 293 294 289 285 286 286 287 287 287 287 285 284 283 283 282 281 280 279 278 278 278 278 278 278 278 278 278 278 278 278 279 279 279 279 279 279 279 279 279 280 280 280 279 279 279 278 278 277 277 276 276 275 275 275 274 275 275 274 274 274 275 274 274 274 274 273 274 274 274 274 274 273 272 271 272 271 271 271 272 272 273 275 274 274
295 296 294 292 291 291 294 296 298 299 296 294 294 295 294 293 286 286 286 287 287 287 286 285 284 283 283 282 281 280 280 278 278 278 278 278 278 278 278 278 278 278 278 278 278 278 279 278 278 277 277 278 278 277 277 278 277 277 276 276 275 276 275 275 274 274 274 274 274 274 274 273 273 273 274 273 272 273 273 273 273 273 273 273 272 272 271 271 272 271 271 271 271 271 272 273 273
295 293 291 289 292 289 294 294 296 299 293 290 293 292 293 294 291 287 287 286 285 286 287 286 284 284 283 282 281 280 279 278 278 277 277 277 277 277 277 277 278 276 277 277 277 277 278 278 278 277 278 277 277 277 277 277 277 276 275 274 274 274 275 274 273 273 273 274 274 273 273 273 272 272 273 273 272 272 271 272 272 272 272 272 272 272 271 272 271 270 270 269 271 270 270 272 272
293 290 289 288 290 293 295 293 295 297 294 289 292 290 291 293 294 288 287 285 287 288 288 287 285 284 283 282 281 280 277 275 276 276 277 276 277 277 276 277 277 277 277 277 277 277 277 277 277 277 277 276 276 277 276 275 276 277 276 275 274 274 275 275 274 274 274 273 272 272 273 272 272 271 271 272 271 271 271 271 271 271 271 272 270 270 270 269 269 269 269 268 268 270 270 272 272
290 289 287 286 291 288 285 292 294 294 291 289 290 288 289 293 294 291 287 287 288 289 289 289 287 285 283 282 281 279 276 275 275 275 275 276 276 276 276 276 276 276 276 276 276 276 276 276 276 276 276 275 275 276 277 276 277 276 276 276 276 275 274 275 275 274 273 272 272 272 272 271 271 271 271 271 271 270 270 270 270 270 270 271 270 269 269 268 268 268 268 268 268 266 268 269 272
292 292 289 287 290 291 290 289 292 294 293 293 290 287 287 289 289 291 288 289 288 288 288 289 288 287 285 284 282 279 276 276 275 275 275 275 275 275 275 275 275 275 275 275 275 275 276 276 276 276 275 274 274 275 276 276 277 276 276 277 277 276 276 273 272 272 272 273 272 271 271 271 271 270 270 270 270 270 269 269 269 269 269 270 270 269 268 268 268 268 268 268 267 267 266 268 269
288 293 292 292 293 291 292 293 289 287 286 291 288 280 282 287 289 290 286 286 285 287 286 286 287 286 284 282 281 279 278 277 276 275 275 275 275 275 275 275 275 274 274 274 275 275 275 275 275 275 274 274 274 275 275 275 276 276 276 275 274 274 272 270 269 270 270 270 270 271 271 271 270 270 269 269 269 270 269 269 269 268 268 269 269 268 268 267 267 267 268 267 267 268 267 266 266
285 289 295 294 293 293 292 290 289 283 281 287 292 281 280 286 288 289 284 284 284 286 285 285 285 285 284 282 280 278 278 277 277 276 275 275 275 274 274 274 274 274 273 274 275 275 275 275 275 274 273 273 274 274 275 276 274 274 274 273 273 273 271 270 270 271 270 271 271 270 270 270 270 269 269 269 268 269 268 268 268 268 268 268 268 268 267 266 266 267 268 267 267 267 267 265 265
285 293 295 294 293 291 291 290 288 286 290 291 289 287 281 281 286 290 285 283 283 283 284 284 284 284 283 281 280 278 278 277 276 275 275 275 275 274 274 274 274 273 274 274 274 274 274 274 274 274 274 274 273 273 273 275 274 274 273 273 273 271 270 270 270 270 271 271 269 270 269 269 269 269 268 268 268 268 268 267 267 267 267 267 267 267 266 266 266 267 267 267 267 266 266 265 264
290 293 295 293 293 292 291 288 286 287 285 282 284 289 282 281 284 287 284 282 282 282 283 283 284 284 283 281 280 279 278 277 276 275 275 275 274 274 274 274 274 273 273 273 273 273 274 274 274 273 273 272 272 273 273 273 274 273 272 272 271 271 271 271 272 272 270 270 269 269 269 269 269 269 268 268 267 267 267 267 266 266 266 266 266 266 266 265 265 265 265 266 265 265 266 266 265
294 296 296 295 294 292 291 285 285 285 282 279 284 286 279 280 283 280 282 281 282 283 284 284 284 283 282 281 279 279 278 277 277 276 275 275 275 275 275 274 273 273 273 274 273 273 273 273 273 272 272 272 272 272 272 271 271 271 270 270 270 269 270 270 270 269 269 269 268 268 268 269 269 268 268 267 267 267 266 267 266 265 266 266 265 265 264 264 264 264 265 265 265 264 265 265 265
296 296 292 290 290 287 287 287 285 282 278 280 285 287 284 278 281 281 280 281 284 285 284 284 283 282 282 281 279 278 277 277 276 276 275 275 275 275 275 273 273 273 273 273 273 273 273 272 272 271 271 272 272 271 271 270 270 270 270 269 269 269 269 269 269 269 269 268 268 268 268 268 269 267 267 267 266 266 266 266 264 265 265 265 265 264 263 263 263 263 264 265 265 264 263 264 264
295 289 286 285 285 287 284 283 285 277 276 283 286 286 287 277 280 283 286 286 287 287 285 283 281 282 281 280 279 278 277 276 276 275 275 275 274 274 274 272 272 272 272 272 272 272 272 272 271 271 271 271 271 271 270 270 270 270 269 269 269 268 268 269 268 268 268 267 268 267 268 267 267 266 266 265 265 265 265 265 265 264 264 264 263 262 261 262 263 263 263 263 263 264 263 262 260
290 287 285 280 279 281 277 280 276 277 277 281 282 286 283 282 286 288 287 286 286 285 287 284 282 281 280 279 279 278 277 277 276 275 275 274 274 273 272 272 272 272 271 272 272 272 272 271 271 270 270 270 270 270 270 269 269 269 269 269 269 269 269 269 268 267 268 267 267 266 266 265 265 265 265 263 264 263 263 264 264 263 262 262 261 261 261 260 260 262 261 261 262 262 262 260 260
287 284 283 280 276 275 274 278 281 280 284 282 282 285 279 282 284 284 284 281 282 283 284 284 283 281 280 279 279 277 277 276 275 275 274 274 273 273 272 272 272 272 272 272 272 272 272 271 271 270 270 270 270 270 269 269 269 269 269 269 269 269 269 269 268 267 267 266 266 265 266 265 265 265 264 264 264 264 264 264 263 262 262 262 262 261 261 260 260 260 260 260 261 262 261 261 260
287 290 286 282 280 277 274 276 275 277 279 282 284 278 276 277 280 280 279 279 280 280 282 282 282 281 280 279 278 277 276 276 276 275 274 274 273 273 272 272 272 272 272 272 272 271 271 271 270 270 269 270 270 269 269 269 268 268 268 268 268 269 268 268 268 267 266 266 266 265 265 265 264 264 264 264 265 264 264 264 264 263 263 262 262 261 260 260 260 259 259 260 261 261 260 260 259
289 289 290 283 281 284 279 280 278 277 278 279 278 277 281 281 279 279 279 279 279 280 280 281 280 279 279 277 277 276 276 276 275 274 274 274 273 273 273 272 272 272 272 272 271 271 271 271 270 270 269 269 269 269 269 269 268 268 268 268 268 268 268 268 268 267 266 266 265 265 265 265 264 264 264 264 264 264 263 263 263 263 263 262 262 261 260 260 260 259 260 260 260 262 260 260 260
286 287 282 284 288 285 282 282 284 283 280 277 281 282 284 282 278 277 278 277 277 279 279 279 278 278 277 276 276 276 276 275 275 274 274 273 273 273 273 272 272 272 272 271 271 271 271 271 270 270 269 269 269 269 269 268 268 268 267 267 267 267 267 266 266 266 266 266 265 265 264 264 264 264 264 264 263 264 263 263 263 263 262 262 261 261 261 260 259 259 260 260 260 260 260 259 260
285 281 284 289 291 287 282 276 277 277 275 277 281 279 280 280 279 277 277 277 276 277 277 278 278 277 276 276 276 276 275 275 275 275 274 274 273 273 273 273 273 272 272 271 271 272 272 271 270 270 269 269 269 269 268 268 268 267 267 267 267 267 266 266 266 265 266 265 265 265 265 264 264 264 264 264 264 263 263 263 263 262 263 262 262 260 260 259 259 259 259 260 260 260 260 259 259
288 284 287 282 278 278 282 279 273 273 273 275 279 280 281 282 282 277 276 277 277 276 277 277 277 277 276 276 276 276 276 275 275 274 274 273 273 273 273 273 273 272 272 272 272 272 271 271 271 270 269 269 269 269 268 268 268 267 267 267 266 266 266 266 266 266 265 265 264 264 263 263 263 263 263 263 263 263 262 262 262 262 262 262 262 261 260 260 259 259 259 259 260 259 258 257 258
292 291 286 288 282 279 278 281 279 279 274 275 275 279 277 283 280 281 279 279 279 277 277 277 277 277 277 276 276 275 275 275 274 274 274 274 273 273 273 273 272 272 272 272 272 271 271 271 270 270 270 269 269 268 268 267 267 267 266 266 266 266 265 265 265 264 264 264 264 263 263 263 263 263 263 262 262 261 261 261 261 261 261 260 260 260 259 259 259 259 259 258 259 258 257 256 256
283 282 281 283 282 283 280 280 278 278 275 275 275 274 279 280 281 282 281 281 280 279 278 278 278 278 277 277 276 276 275 275 275 274 274 274 273 273 273 273 272 272 272 272 271 271 271 271 270 270 269 268 268 268 267 267 266 266 265 265 265 264 264 264 264 264 263 263 263 262 261 261 261 260 262 260 261 261 260 260 260 259 259 258 258 258 258 258 257 257 257 257 257 256 256 255 256
285 284 282 284 282 278 275 275 282 280 278 274 274 273 280 285 281 281 280 281 282 280 280 279 279 278 277 277 277 276 275 275 275 274 274 274 273 273 273 273 272 272 271 271 271 271 270 270 270 269 269 268 267 267 266 266 265 265 264 264 264 263 263 263 262 263 262 262 262 261 260 260 259 259 259 258 258 258 258 259 258 258 259 258 258 259 258 256 256 256 256 257 256 255 255 255 255
Wind_Speed
12 12 9 6 4 5 5 2 4 3 2 5 4 5 1 6 2 2 7 6 6 11 12 15 16 13 9 9 19 15 16 11 6 3 4 2 8 9 17 19 19 19 18 16 13 10 14 17 21 23 22 23 24 26 28 27 26 26 26 26 26 26 27 27 27 28 28 28 27 27 28 27 27 27 27 27 28 28 28 28 27 28 27 26 27 28 27 27 26 26 26 24 23 23 23 23 22
10 11 10 8 4 3 2 2 2 3 3 3 4 4 1 5 3 7 10 9 6 7 10 13 15 20 24 21 16 11 17 13 9 6 5 6 6 7 19 18 18 18 17 15 14 11 15 13 22 23 26 27 28 29 29 27 27 27 28 28 27 27 28 28 27 28 28 28 28 28 28 28 26 26 26 27 27 28 27 27 27 27 26 27 26 26 26 26 26 25 24 24 24 23 23 23 22
9 9 10 3 4 3 1 1 3 3 4 4 3 2 1 6 11 11 11 12 11 12 11 11 13 13 7 9 17 11 5 12 13 12 4 12 14 13 18 18 17 16 15 14 15 11 13 16 24 24 27 27 28 30 29 29 29 27 28 28 28 28 28 28 27 28 28 29 29 30 28 28 27 27 27 26 27 26 27 27 27 27 27 26 26 26 26 25 25 24 23 23 23 22 22 22 21
9 9 8 3 2 0 2 3 4 4 3 1 1 10 9 9 11 10 8 9 13 5 5 10 10 11 9 15 7 10 11 7 12 10 4 9 8 11 14 18 16 13 13 12 14 10 13 18 26 27 29 30 28 28 28 27 27 28 28 28 28 29 29 29 29 28 29 28 29 29 28 27 27 26 26 27 26 27 28 27 27 26 26 27 26 25 25 24 24 24 23 23 23 23 22 22 22
9 8 5 3 2 2 2 2 2 3 4 1 2 6 9 9 8 9 9 12 15 16 10 7 7 9 13 12 10 4 6 6 11 11 6 7 12 12 14 16 13 14 14 14 15 13 14 26 27 28 30 30 29 28 28 28 28 28 28 27 28 29 29 28 28 28 28 29 28 28 27 26 26 27 26 27 27 27 28 27 26 26 25 25 25 25 24 24 24 23 23 23 23 23 23 22 22
9 8 3 3 2 2 2 2 2 3 4 3 2 5 7 8 9 8 13 18 17 17 13 15 6 5 8 7 7 5 9 4 7 8 9 8 14 14 15 14 12 15 15 12 14 13 16 27 28 30 29 29 28 28 29 27 27 27 28 28 28 28 28 28 28 28 28 28 27 28 27 27 27 27 27 27 27 27 27 26 25 25 25 25 24 24 24 23 23 23 23 23 23 23 23 23 23
4 4 2 3 1 1 3 2 2 2 7 9 6 5 8 7 9 11 7 8 14 15 13 9 11 13 10 4 8 9 10 10 5 7 10 9 12 14 14 13 11 15 16 13 12 13 20 28 29 29 29 28 28 29 29 29 29 28 28 28 27 28 28 28 28 28 27 26 26 27 27 26 27 27 27 26 27 27 26 25 25 25 25 25 24 24 24 24 24 23 23 23 23 23 23 23 23
1 2 1 3 2 2 3 1 2 2 5 11 8 8 7 8 7 9 11 7 8 8 12 8 10 11 8 6 4 7 11 11 9 10 11 11 13 13 13 13 12 12 14 14 12 11 19 28 29 29 29 29 28 29 29 28 28 27 27 27 27 27 26 27 27 27 27 27 26 26 26 26 27 27 26 26 26 26 26 26 25 25 25 25 25 25 24 24 24 23 22 22 23 23 23 23 23
1 4 1 1 3 1 3 2 3 3 8 9 11 9 9 9 10 9 13 9 9 12 16 13 2 5 4 9 7 5 8 10 10 12 13 13 14 14 9 14 13 12 12 11 13 11 11 25 28 30 31 30 31 30 29 29 28 27 26 26 26 26 26 26 27 27 27 27 27 26 26 26 26 27 26 26 25 25 25 25 25 25 25 25 25 24 24 24 23 23 22 22 23 22 22 23 23
2 1 2 2 0 3 1 3 3 6 11 8 8 7 2 5 5 12 10 10 10 10 11 13 16 12 8 9 4 6 5 9 10 13 13 13 13 13 12 12 14 13 12 11 11 12 12 22 28 29 30 30 29 29 28 28 28 27 26 26 26 26 26 26 26 27 27 27 27 26 26 26 26 26 26 25 25 25 25 25 25 25 24 24 24 24 24 23 23 23 22 21 21 22 22 23 23
1 2 2 2 3 1 1 1 4 3 9 6 7 6 5 2 3 7 12 11 7 6 3 5 11 10 8 5 5 5 8 10 13 13 12 12 12 13 11 10 11 12 11 14 10 10 11 13 25 28 27 29 29 29 28 27 27 26 26 26 26 26 26 26 27 27 27 27 27 27 27 27 27 26 25 25 25 25 25 25 24 24 24 24 24 23 23 23 23 23 22 21 20 21 21 22 23
3 2 2 4 3 6 6 4 5 7 8 5 6 7 6 3 5 8 9 10 7 12 8 10 6 11 10 5 2 6 11 13 11 9 10 10 9 11 11 7 11 13 12 11 11 11 10 12 13 21 27 27 28 28 27 27 27 26 26 26 26 26 26 26 26 26 26 26 25 25 26 27 27 26 25 25 25 25 25 24 24 24 24 24 23 23 23 23 23 23 22 22 20 21 21 21 22
3 4 1 3 3 6 5 3 6 5 2 5 5 6 6 11 10 12 13 12 8 7 7 11 3 3 5 3 4 5 12 11 9 8 8 8 8 7 8 9 10 11 12 11 11 13 14 11 11 12 17 26 26 27 27 27 27 26 26 26 25 26 25 25 25 25 25 25 25 25 25 24 25 25 26 25 25 24 24 24 23 24 24 23 23 23 23 23 23 23 22 22 21 20 21 21 21
2 2 1 3 4 3 2 2 3 0 2 8 8 7 8 8 9 10 9 11 11 6 2 9 4 4 6 6 4 4 6 7 8 8 6 7 6 7 9 8 11 11 13 13 13 12 13 12 12 11 11 14 14 18 23 26 25 25 25 25 25 24 24 24 24 24 23 24 24 24 23 23 23 23 24 24 24 24 24 24 23 23 23 23 23 23 23 23 22 22 22 22 22 20 20 21 20
3 0 2 1 1 3 2 2 2 3 5 8 7 10 10 10 10 12 11 13 8 7 3 10 5 5 5 7 4 3 5 6 7 8 6 5 8 7 7 7 8 10 12 14 13 13 12 10 12 12 12 11 12 11 10 16 23 23 25 24 24 24 23 23 23 23 22 22 22 21 21 21 21 22 21 22 23 23 22 23 25 24 22 22 23 22 23 23 23 22 22 22 22 21 19 20 21
3 2 2 1 2 4 4 2 1 4 4 6 11 15 15 12 11 8 9 5 8 7 9 6 11 5 6 7 7 6 5 6 7 7 6 7 3 4 6 8 8 9 11 13 12 13 11 12 10 9 10 11 10 11 10 10 18 22 22 23 23 23 23 22 22 21 21 21 20 19 20 17 17 15 20 15 20 22 24 21 23 23 22 21 22 23 23 23 23 22 22 22 22 22 20 20 21
2 0 2 2 2 1 5 4 7 2 8 8 10 6 8 8 11 13 12 11 15 9 12 9 7 8 11 7 7 8 6 7 9 9 7 5 5 4 4 6 7 8 9 11 12 10 12 13 14 10 11 12 10 9 9 11 14 17 14 18 21 22 22 21 21 19 18 17 16 16 14 12 10 10 11 11 16 15 20 21 21 22 22 21 21 22 23 23 23 23 22 22 22 22 20 19 20
1 3 2 2 3 7 6 7 6 1 4 6 4 10 13 10 8 10 12 16 14 11 13 10 13 13 9 7 6 8 8 10 10 10 7 6 5 5 6 7 7 8 9 9 10 10 10 11 13 12 10 13 12 8 8 9 8 12 11 10 11 14 17 17 14 13 13 10 15 12 10 10 9 9 10 11 9 11 14 21 20 21 22 22 21 22 22 23 23 22 22 21 21 20 21 9 10
2 3 4 4 4 7 9 6 7 6 8 7 6 3 7 10 11 8 7 8 9 11 9 9 11 9 8 8 8 6 6 9 11 9 10 10 7 9 7 7 9 8 8 7 8 11 9 9 11 12 12 11 12 11 8 8 11 9 10 10 9 14 13 14 12 13 11 11 10 10 9 9 10 9 10 12 11 16 15 19 20 20 21 22 22 21 22 22 22 21 22 20 19 20 11 8 8
3 2 3 4 6 5 7 6 5 8 6 10 10 10 10 7 5 7 8 10 7 8 7 7 6 7 7 7 7 7 9 8 9 10 11 9 9 7 7 7 7 8 8 8 7 7 10 10 11 11 10 11 9 8 8 9 9 9 9 9 9 10 10 10 12 12 11 11 9 9 9 9 9 9 12 16 13 8 10 16 19 19 19 20 22 14 17 19 21 20 20 20 12 8 9 9 8
3 2 4 4 4 2 5 5 5 2 5 8 8 7 10 7 4 8 11 9 6 5 7 3 9 9 8 7 7 7 8 9 11 10 10 8 6 5 6 6 6 5 6 6 6 9 11 10 9 10 10 8 9 8 9 9 8 8 8 8 9 9 8 9 10 10 11 11 10 8 9 8 8 8 8 8 8 8 8 8 9 9 9 10 17 10 10 10 11 9 9 10 8 8 9 10 8
4 4 7 5 3 5 6 4 6 6 7 7 6 5 6 5 11 8 3 3 4 4 6 8 9 10 10 9 8 7 9 10 11 10 8 7 6 6 7 6 6 5 5 6 6 7 10 10 11 8 8 10 10 9 9 8 8 8 8 8 8 8 8 9 8 9 9 11 9 9 8 8 8 8 8 8 8 8 9 9 9 9 9 10 10 9 9 9 9 9 9 9 9 8 9 9 9
2 5 3 4 5 5 4 4 4 3 3 5 5 6 7 6 7 8 13 8 5 8 8 8 9 9 9 9 8 9 9 9 9 8 6 7 6 7 6 5 5 5 5 6 7 8 9 10 10 8 8 7 10 9 8 7 8 7 7 8 8 8 8 8 8 8 9 10 10 9 8 8 8 8 9 9 9 8 8 8 9 9 9 9 9 9 9 9 9 9 9 9 9 8 9 9 9
3 4 3 5 3 5 7 8 6 6 7 5 5 4 7 7 4 6 10 9 10 8 9 9 8 9 9 9 9 9 9 9 8 7 6 6 5 7 6 5 6 5 6 7 8 8 8 10 10 8 8 8 7 8 8 8 7 7 8 8 8 10 9 9 8 8 8 9 10 9 9 8 8 8 8 9 9 8 9 8 8 9 9 9 9 9 9 8 9 9 9 9 9 8 8 9 9
3 1 5 9 11 9 9 7 8 7 5 4 4 6 6 3 7 7 6 8 9 9 8 9 8 8 8 9 8 9 10 9 8 7 6 4 4 5 5 3 4 5 6 7 6 7 8 9 9 9 8 9 7 8 8 7 7 7 7 7 8 10 8 9 9 9 9 9 10 10 9 8 8 8 8 9 8 9 9 9 9 8 8 9 9 9 9 9 8 8 9 8 8 8 7 8 9
4 6 4 4 8 8 8 8 8 7 3 4 9 8 7 11 10 7 8 8 8 9 8 9 8 8 8 8 8 7 8 8 8 7 6 5 5 5 5 5 4 6 6 6 6 6 8 8 9 9 8 8 8 8 7 7 7 7 8 8 8 8 8 8 8 8 8 8 9 10 10 8 8 8 8 7 9 9 9 8 8 8 8 8 8 9 9 8 8 8 8 8 8 8 7 7 8
6 1 3 1 9 6 6 7 8 7 7 8 6 7 6 4 4 2 6 9 9 9 9 8 8 8 7 7 7 6 6 6 6 6 6 5 4 4 4 5 5 5 6 7 6 6 6 7 8 9 8 9 7 8 7 7 7 7 7 7 7 7 8 7 8 8 8 9 9 10 9 9 8 8 8 8 8 8 8 8 8 7 7 8 8 8 8 8 8 7 8 8 8 7 6 6 8
5 1 5 5 5 6 7 7 8 7 6 6 8 6 5 3 2 1 13 11 10 9 8 8 7 8 7 8 7 6 5 4 5 5 6 5 3 3 3 4 4 5 6 6 5 5 6 8 8 9 9 8 8 8 7 7 7 7 7 6 7 8 8 7 7 8 9 9 9 9 9 9 9 8 9 8 7 7 8 8 7 8 8 7 7 8 8 8 8 8 8 8 8 7 6 6 8
2 3 6 6 5 5 8 8 9 10 5 9 9 6 5 7 5 9 14 12 10 9 8 7 7 7 7 7 6 6 5 5 4 5 5 4 3 3 5 4 4 5 4 5 5 5 6 6 7 8 8 8 9 8 7 6 6 6 6 7 7 7 7 7 7 7 7 8 8 9 9 9 8 7 7 8 8 7 7 7 7 8 7 7 7 8 9 8 7 8 8 8 7 8 7 7 7
3 5 6 4 7 8 9 7 9 11 6 11 8 4 0 6 8 11 12 12 12 10 9 8 6 6 6 6 5 6 5 5 4 5 5 4 4 4 5 5 5 4 4 4 5 6 4 4 5 6 7 9 9 7 7 6 6 6 7 6 7 7 6 7 7 7 7 7 8 9 9 10 9 8 7 7 7 7 7 7 7 7 7 7 7 8 8 8 8 8 8 8 9 9 8 8 8
5 4 1 3 3 6 8 10 11 10 10 12 8 3 1 5 7 11 12 13 13 11 10 9 8 7 6 6 6 6 6 4 6 5 5 5 5 5 5 5 5 5 4 5 5 6 6 5 5 6 7 8 8 8 8 7 7 6 6 6 6 7 7 7 7 7 7 7 7 8 9 9 9 9 8 7 7 7 7 7 7 7 7 7 7 8 7 8 8 8 8 8 8 8 8 8 9
5 1 4 5 6 7 7 12 13 11 5 11 8 5 9 8 10 13 12 12 12 10 11 11 9 9 8 7 8 7 6 6 7 6 6 6 6 6 6 6 5 5 5 5 5 4 6 6 6 7 8 8 7 7 7 7 7 7 6 7 6 7 6 7 7 7 7 7 7 7 8 9 9 9 9 7 6 7 7 7 7 8 8 7 7 7 7 8 8 7 9 8 8 8 8 7 8
6 6 3 5 2 3 7 12 11 11 8 10 12 4 3 3 10 12 13 13 14 10 11 12 12 11 10 9 8 8 8 8 7 8 8 7 6 6 6 6 5 5 5 5 5 5 5 6 6 6 7 6 6 7 7 6 7 7 7 7 7 7 6 6 6 7 7 7 7 7 8 9 9 9 9 8 7 7 7 7 7 8 7 7 7 7 7 8 8 8 8 8 8 8 8 7 8
4 4 5 4 7 1 2 8 11 9 10 8 11 7 6 6 12 13 14 14 14 10 11 12 11 10 11 9 9 9 9 9 10 9 9 8 6 7 6 7 6 6 5 5 5 5 5 5 5 6 5 5 5 5 5 5 5 6 6 6 8 7 7 7 7 7 7 7 7 8 8 8 8 8 9 8 7 6 6 7 7 8 7 7 6 7 7 7 8 8 9 8 8 8 7 7 9
3 1 1 5 6 9 7 6 10 12 11 8 9 11 10 9 11 13 15 15 14 12 11 11 11 12 11 10 10 11 10 10 10 10 10 9 9 8 7 7 7 5 5 5 5 6 6 5 4 5 3 3 3 3 3 5 6 6 6 6 6 7 7 7 6 6 6 6 6 7 7 7 7 8 8 8 7 7 6 7 7 8 7 6 6 7 7 8 9 9 9 9 8 8 7 7 9
8 7 4 4 3 4 5 5 7 11 7 8 9 9 11 9 11 12 13 14 14 12 10 10 11 11 11 10 10 10 10 10 10 11 11 9 8 8 7 7 7 6 6 5 6 6 6 6 5 4 3 2 2 2 3 4 4 3 4 5 5 6 6 6 6 6 6 6 7 7 7 7 7 7 8 8 7 7 6 6 7 7 7 6 6 7 8 7 9 10 11 10 9 8 7 6 8
9 4 5 6 7 7 9 3 3 6 4 9 10 11 11 7 12 14 14 13 12 12 13 12 11 11 11 10 10 10 10 10 10 11 11 10 10 9 8 7 7 8 7 6 6 6 6 5 6 5 3 3 3 3 4 2 3 4 4 5 5 5 5 6 6 6 6 6 6 6 6 6 7 7 7 6 7 8 7 6 6 7 7 7 6 7 8 8 9 9 8 9 9 9 7 6 8
6 5 5 7 4 8 8 5 4 1 2 3 7 9 10 12 9 13 13 13 16 16 15 14 14 13 11 12 11 11 9 8 11 9 10 10 8 9 8 7 9 9 8 7 7 7 6 6 6 6 5 4 4 4 4 4 4 4 5 5 5 5 5 5 4 4 5 5 6 5 5 6 6 7 7 7 7 7 7 7 6 7 7 6 7 7 9 9 9 8 8 7 8 8 7 8 8
5 4 4 4 6 6 8 7 4 2 1 6 6 11 11 12 7 13 16 19 14 16 16 14 14 13 11 11 11 11 11 11 10 9 10 9 10 9 8 7 8 8 9 7 7 8 7 6 6 6 6 5 4 4 4 4 5 5 4 5 5 4 5 5 4 4 4 5 6 6 6 6 6 7 8 7 6 7 7 7 6 6 7 7 7 7 7 8 8 9 9 8 8 8 6 8 7
4 3 3 6 5 4 3 2 3 4 2 2 4 9 9 8 9 10 17 15 8 10 12 11 11 12 12 12 13 13 13 12 12 12 11 10 9 9 7 7 7 7 8 7 7 7 6 5 6 6 6 4 3 3 4 4 4 5 5 5 4 4 4 5 5 5 4 5 6 6 6 5 6 6 7 6 6 7 7 7 6 6 7 7 7 6 7 7 8 8 9 9 8 8 8 7 8
4 5 5 5 5 6 4 0 3 2 5 5 9 9 9 10 12 13 8 7 5 8 9 10 8 8 9 9 10 12 14 14 12 12 11 11 11 10 8 7 7 7 6 7 5 5 5 7 7 7 5 4 3 3 2 3 4 4 4 4 4 5 4 4 4 4 4 4 5 5 5 5 5 5 6 7 7 6 7 7 7 7 7 7 6 6 6 7 8 7 8 8 9 7 8 7 8
4 6 7 9 8 7 6 0 3 2 5 6 4 4 6 10 17 16 8 6 9 7 9 10 9 9 10 11 11 10 10 11 13 14 13 12 11 10 9 9 8 6 6 5 6 6 7 6 6 6 5 4 3 3 3 3 3 1 5 6 5 5 4 4 4 3 4 4 3 5 5 5 5 5 5 6 7 6 7 7 7 7 6 6 6 6 6 7 8 8 8 7 8 8 7 7 6
3 2 4 7 4 3 4 7 4 5 4 0 2 3 12 2 4 5 9 10 11 6 9 9 10 10 10 10 10 11 12 11 10 11 11 12 11 11 10 9 8 8 6 6 6 7 6 5 5 5 5 4 4 3 3 3 3 4 5 6 5 4 5 5 3 3 4 3 3 2 5 5 5 5 5 6 6 7 6 7 7 6 6 5 6 6 6 7 7 7 7 7 7 7 8 6 8
4 0 2 3 3 3 3 5 4 7 5 2 4 5 10 12 5 3 12 11 11 9 10 11 10 10 10 9 10 11 11 12 12 13 12 12 11 11 12 10 9 8 8 7 6 6 6 6 5 5 5 5 3 3 4 3 4 4 5 5 5 4 4 4 4 3 3 2 2 3 3 4 4 5 5 6 7 7 6 6 6 6 5 6 6 6 6 6 6 6 7 7 6 6 7 7 7
1 1 4 1 2 3 4 4 5 5 5 6 5 6 5 7 3 3 13 7 8 12 12 13 12 11 10 10 10 11 11 12 13 13 13 13 12 11 10 10 9 10 8 8 7 6 6 6 6 6 6 5 4 4 4 4 4 4 3 3 4 4 2 4 3 3 2 4 2 3 3 3 4 4 5 6 7 6 6 5 6 6 5 6 6 6 6 7 8 8 8 7 7 7 6 6 6
3 2 1 2 2 3 5 4 5 5 5 12 7 6 6 15 5 1 1 2 6 11 13 13 14 13 12 11 10 11 10 10 11 12 12 12 11 11 9 9 10 9 8 8 7 7 6 6 6 6 6 4 4 4 4 4 5 5 4 4 4 4 2 2 4 3 3 2 2 3 3 3 4 3 5 5 6 6 4 4 5 6 6 5 4 6 7 7 7 7 8 7 7 6 6 6 5
1 2 4 3 4 5 4 4 4 4 9 13 8 10 9 10 4 7 8 8 9 5 4 7 10 11 11 10 12 11 11 11 10 11 11 11 11 11 11 11 11 9 8 8 8 7 6 6 6 7 6 5 4 5 5 5 4 4 4 4 4 3 2 3 3 3 4 2 3 2 3 3 3 4 5 3 6 5 4 4 2 5 4 5 5 6 6 6 7 6 7 7 7 6 3 5 5
2 0 2 3 6 6 3 3 4 3 8 7 9 13 13 11 0 6 7 1 4 6 7 11 13 15 13 11 11 11 11 10 11 11 12 12 12 11 11 11 11 10 9 9 8 7 7 6 7 8 7 6 5 5 5 5 4 4 4 3 4 3 3 2 3 2 3 2 3 3 3 3 2 4 4 3 4 4 3 3 3 3 4 4 3 3 3 3 5 6 6 6 5 4 4 3 3
2 2 2 1 3 0 3 5 4 8 9 2 3 4 6 14 12 3 4 3 3 6 0 13 14 12 11 11 11 10 9 10 11 11 11 12 12 13 13 12 11 11 10 10 9 8 8 8 8 8 7 6 6 5 5 5 4 3 3 3 3 3 2 2 3 2 2 3 3 2 2 3 4 4 3 2 2 3 2 2 2 3 2 2 1 1 1 2 3 5 4 4 5 5 4 2 3
3 3 3 2 3 3 6 5 4 6 2 2 1 5 4 3 5 5 3 4 5 4 6 7 10 13 12 11 10 10 9 9 10 10 11 11 11 11 12 12 11 10 11 11 10 9 8 8 8 8 8 7 6 6 6 5 4 4 3 2 2 2 3 3 3 3 2 3 3 2 2 3 4 2 2 2 3 2 2 2 2 1 2 1 1 1 1 2 3 3 4 4 5 6 2 2 3
7 4 3 3 3 1 5 2 4 4 3 2 3 3 4 3 3 1 3 3 4 4 5 6 7 8 8 8 9 9 10 9 10 10 11 11 12 12 12 11 11 11 11 11 10 9 9 9 9 9 9 8 7 6 6 6 5 4 3 3 3 2 2 2 3 4 2 2 2 2 2 3 3 2 2 1 3 2 2 2 2 2 3 2 2 2 1 2 3 3 3 5 5 4 3 3 3
4 3 1 1 4 1 7 3 3 3 6 9 3 4 1 3 2 3 1 4 3 3 5 6 8 8 8 9 10 9 10 10 9 10 11 11 12 12 11 11 11 11 12 10 10 9 9 9 9 9 9 8 7 6 5 5 5 4 3 3 3 2 1 2 4 4 1 2 1 2 1 2 2 1 2 2 2 2 2 2 3 3 3 2 2 1 2 2 3 3 4 5 5 4 4 4 3
3 3 3 1 2 1 4 7 6 6 6 15 2 9 9 1 0 3 2 3 3 1 3 5 7 8 8 8 9 9 10 10 10 11 10 12 12 11 11 11 11 11 11 11 11 10 10 10 10 10 9 7 7 7 6 5 5 5 4 3 3 2 3 2 3 2 2 1 1 1 1 1 1 1 2 2 2 2 2 3 3 3 3 3 2 2 2 2 3 3 4 5 4 4 4 4 3
2 1 0 1 1 3 1 4 2 2 7 12 3 10 11 5 8 1 2 1 2 3 3 5 6 8 9 9 9 10 10 10 10 9 10 11 12 12 11 11 11 12 12 12 12 10 9 9 10 10 9 9 7 7 6 5 5 5 4 4 3 2 2 2 1 2 0 2 1 0 0 2 1 1 2 2 2 2 3 4 3 3 4 4 3 3 3 2 3 3 4 5 5 4 4 3 3
3 0 1 1 2 2 2 0 5 5 8 7 9 7 10 7 9 3 3 5 6 5 5 6 8 10 9 9 9 9 9 10 11 11 11 12 12 12 12 12 11 12 11 11 11 10 9 9 9 9 10 9 8 7 6 5 4 3 4 3 4 2 2 2 1 1 0 1 0 0 1 0 1 2 1 2 3 3 3 3 4 4 4 4 4 4 3 3 3 3 4 5 5 4 3 3 3
0 1 2 1 1 3 4 3 1 2 7 6 14 8 13 3 2 1 5 7 6 7 7 9 11 11 10 10 11 11 12 11 10 10 10 11 12 12 12 13 13 13 12 11 11 9 11 10 10 9 9 8 8 7 6 6 5 4 4 4 3 3 2 2 1 1 2 1 0 1 1 1 2 1 2 3 3 4 4 4 4 5 5 4 4 4 3 4 4 4 5 4 5 4 4 5 5
2 2 3 1 2 1 1 3 2 4 4 6 10 11 10 0 1 1 5 7 10 12 12 11 11 11 10 10 11 11 11 10 11 11 11 12 12 12 12 11 12 11 10 10 10 11 10 10 10 10 10 10 8 7 7 6 5 5 5 4 4 2 3 1 2 0 1 1 1 0 1 1 1 1 2 2 3 4 4 4 5 4 4 4 4 5 4 4 5 5 6 5 5 5 6 6 5
7 8 7 10 7 4 4 10 3 3 6 8 6 13 13 4 2 2 5 4 7 8 9 10 9 10 11 10 10 11 11 11 11 11 11 12 12 12 11 11 11 11 11 11 10 10 10 10 9 10 9 8 8 7 5 4 4 3 3 3 2 2 1 0 0 1 1 2 1 0 0 1 1 2 2 3 3 3 3 4 4 4 5 5 5 6 5 4 5 6 7 5 5 6 7 7 6
Wind_Direction
293 285 269 283 285 258 275 178 240 180 246 245 263 198 205 65 57 35 40 37 58 55 60 39 37 31 61 104 104 84 37 68 25 284 106 14 315 30 347 343 344 346 351 343 339 351 43 69 77 83 80 81 83 83 83 85 85 82 79 76 74 71 68 66 66 65 64 66 65 68 68 63 60 57 54 51 51 49 50 51 49 50 50 47 44 42 41 39 40 41 40 40 38 37 36 35 33
300 308 300 264 250 284 210 184 271 177 195 264 242 277 32 76 54 21 58 67 66 71 63 64 64 90 102 120 126 111 44 42 18 52 105 352 306 26 348 347 347 351 349 345 341 351 38 47 76 79 75 70 66 68 71 78 81 80 78 74 72 69 68 66 63 62 61 58 62 61 62 62 59 59 57 54 53 50 48 50 50 49 47 44 46 44 42 41 40 39 39 36 35 34 33 32 31
302 303 299 231 232 232 29 240 236 250 205 206 226 189 169 64 64 55 43 47 68 100 84 62 50 23 68 49 38 25 107 37 18 6 82 10 21 339 344 342 352 353 354 347 348 344 35 34 49 66 72 67 68 67 69 72 75 74 74 73 72 70 68 65 64 62 61 57 56 57 58 58 57 57 57 57 55 55 52 48 48 47 46 45 44 43 42 41 40 40 38 38 36 34 31 29 28
286 276 272 318 187 144 239 130 273 269 247 267 241 53 60 82 73 75 57 41 25 35 68 44 38 351 55 47 24 77 52 33 41 14 15 16 4 326 341 343 357 356 0 352 350 337 31 39 52 58 65 69 68 69 67 65 68 70 72 72 71 69 68 64 63 62 61 60 57 56 54 56 57 58 58 56 56 54 52 50 47 46 46 46 45 44 42 42 41 41 39 38 36 34 32 29 27
279 275 261 286 280 187 237 172 242 245 260 20 45 73 67 74 90 81 78 53 44 31 42 120 97 56 75 69 6 32 342 308 42 36 7 19 355 348 347 343 1 2 5 355 358 3 21 41 51 56 61 64 64 70 71 70 67 67 69 71 71 71 69 67 65 65 64 62 61 61 60 59 59 58 57 57 56 55 55 53 51 49 48 46 45 44 42 42 42 41 39 38 37 34 32 29 27
265 262 202 274 303 340 291 226 201 243 273 5 66 59 77 75 86 105 77 58 47 45 48 37 70 104 42 42 29 58 2 23 9 36 1 9 359 357 355 343 0 10 4 359 360 5 19 38 50 57 61 64 68 66 69 71 72 69 69 70 71 71 70 69 69 68 68 66 65 65 63 62 61 60 58 58 57 57 56 55 52 51 49 48 46 45 43 42 42 41 41 39 38 36 33 30 28
303 306 178 246 178 183 289 263 178 228 38 331 70 99 74 68 70 54 43 64 23 60 47 91 115 113 87 135 79 48 42 22 34 15 19 6 7 3 2 351 357 12 11 5 360 9 26 41 48 55 59 62 65 66 67 68 68 68 68 69 69 69 69 70 70 69 67 67 65 65 64 63 62 60 59 58 57 56 55 53 51 49 48 46 45 43 42 41 40 39 39 38 37 35 33 30 28
219 292 100 257 120 257 237 239 315 43 49 51 20 90 83 76 79 68 54 62 25 42 20 72 81 79 57 40 110 55 40 43 41 27 22 18 11 4 8 360 0 9 17 7 8 4 22 38 46 51 53 58 62 62 64 65 67 67 67 68 68 68 68 69 69 69 69 68 67 66 65 64 62 60 58 57 55 53 51 50 48 47 46 45 44 42 40 39 38 37 37 36 35 34 32 30 27
186 260 104 312 179 192 236 229 117 165 87 59 69 68 73 76 80 85 77 91 97 53 40 17 330 76 103 76 72 66 47 34 36 34 25 17 13 4 3 6 9 6 11 9 13 1 15 38 49 52 56 57 57 59 60 63 66 67 67 68 68 68 68 68 69 69 69 69 69 67 65 64 62 60 57 55 53 51 49 48 46 45 44 43 42 39 38 37 36 36 35 35 35 33 31 29 27
189 351 281 277 118 177 287 128 269 60 72 51 43 55 69 119 109 104 105 79 90 87 69 58 69 95 92 73 96 38 32 33 34 35 25 19 13 7 5 8 8 7 10 14 18 18 24 36 45 52 53 53 53 54 56 60 64 65 66 66 67 67 66 65 66 66 66 66 66 64 62 61 60 57 55 53 51 50 50 48 46 44 43 42 41 39 37 36 35 35 34 33 34 33 31 29 27
283 238 108 301 185 201 179 82 117 104 86 73 61 36 25 357 115 88 76 76 59 90 18 6 72 98 90 72 77 90 57 45 37 30 19 20 15 12 10 8 15 11 17 20 19 26 32 30 38 49 53 56 54 52 53 55 58 60 62 63 64 64 64 64 63 63 62 62 62 61 60 58 57 55 53 51 49 48 48 47 47 44 42 41 40 38 37 36 35 34 33 33 34 33 30 29 27
271 180 217 297 2 336 33 333 67 84 73 96 65 17 8 33 58 79 98 89 67 59 43 344 130 125 79 88 73 59 41 35 45 35 24 21 18 12 12 3 23 22 23 23 10 25 32 40 37 40 43 51 55 53 51 51 52 54 56 58 59 60 60 61 61 60 59 58 58 58 57 56 55 53 51 50 47 46 45 46 45 44 42 40 39 38 36 36 35 33 32 32 32 33 31 29 28
327 334 350 279 15 337 19 311 81 39 127 96 83 41 35 63 87 96 84 79 74 80 31 342 207 135 105 96 121 65 36 29 36 37 31 23 19 5 4 6 28 17 31 32 28 30 24 29 42 44 44 45 47 53 50 49 49 49 51 54 56 57 57 58 58 58 57 56 54 54 54 54 53 52 50 48 47 45 43 43 43 42 40 39 37 37 36 34 34 32 31 31 30 31 31 28 27
314 346 6 341 302 299 302 22 74 217 88 98 89 70 45 63 79 110 102 72 47 68 24 335 3 33 100 128 134 59 38 37 36 31 24 35 19 17 10 13 23 19 24 29 35 34 36 25 34 42 44 45 46 43 44 48 47 47 48 49 50 51 52 54 56 56 56 54 53 51 51 51 51 50 48 45 44 42 40 39 39 40 40 38 35 35 35 34 33 32 31 30 30 28 29 26 25
313 108 285 94 271 255 65 324 350 229 117 124 120 95 65 34 69 52 71 102 70 48 159 60 338 287 164 172 132 65 31 32 42 41 16 30 35 24 15 22 27 27 27 25 25 27 30 24 31 30 37 47 48 49 45 45 47 48 45 45 46 47 48 49 51 51 51 52 52 51 48 47 45 47 45 44 41 41 39 36 36 36 36 36 35 33 33 32 31 30 30 28 28 26 26 25 21
345 277 263 359 11 328 61 340 309 319 113 132 105 100 77 52 35 53 18 92 115 46 35 11 16 25 23 43 83 80 35 41 46 46 30 9 6 33 15 30 22 25 36 26 19 24 22 26 30 29 29 31 44 51 40 37 43 45 47 44 43 42 43 42 42 43 46 47 47 48 51 47 42 37 42 40 39 37 35 34 33 33 33 33 33 32 31 30 29 28 29 27 27 26 24 23 20
225 322 280 202 59 341 20 330 353 336 113 129 135 136 104 82 71 73 66 69 84 62 71 45 51 46 53 73 90 74 46 47 52 46 33 18 4 3 6 34 26 23 29 29 25 18 21 29 27 29 27 31 32 47 47 40 41 41 38 43 44 42 40 38 37 35 36 39 42 43 44 46 43 35 31 33 37 36 35 33 31 31 31 30 30 30 28 28 27 26 27 27 26 25 22 19 19
2 254 270 0 13 46 22 32 19 39 157 116 133 93 116 119 122 129 92 70 83 85 78 87 75 63 72 78 78 94 81 55 55 46 30 35 15 4 17 22 25 29 26 25 13 16 23 29 28 27 25 25 30 32 42 43 29 30 34 34 41 41 37 33 31 30 30 32 37 37 37 38 37 37 33 29 26 33 31 32 29 28 28 29 28 27 26 26 24 23 24 24 25 24 19 11 14
321 339 329 52 1 40 43 7 14 358 58 75 82 139 121 130 138 163 100 110 106 82 83 96 85 91 90 68 41 38 73 91 79 61 43 29 20 23 20 20 23 24 30 31 19 16 18 30 29 26 28 25 31 31 36 41 37 22 26 32 31 38 37 35 31 28 27 24 29 33 37 36 35 32 33 33 30 29 29 31 29 27 27 28 28 26 25 25 24 22 22 22 22 22 17 11 11
50 308 347 63 49 47 28 19 24 97 108 94 76 49 77 93 102 128 113 116 98 96 122 106 101 115 96 80 63 47 49 57 77 91 69 34 17 15 22 28 33 21 31 23 18 18 27 32 25 25 24 25 34 32 31 34 38 33 28 27 29 34 35 33 32 28 22 22 22 32 34 36 36 33 32 35 30 23 26 28 28 27 26 27 27 22 22 21 22 18 19 19 11 16 18 7 9
66 357 21 57 80 70 50 23 18 351 121 111 98 96 73 39 100 126 134 105 81 70 22 139 143 131 116 98 84 65 55 50 53 49 79 74 32 13 23 40 37 34 29 23 26 24 25 36 35 27 21 20 29 36 37 35 34 44 30 30 33 37 39 39 37 30 26 19 18 28 30 33 36 33 30 30 29 24 24 25 22 22 20 20 23 19 16 15 16 11 8 11 7 11 18 8 3
317 38 39 21 99 100 68 52 15 24 76 114 126 113 107 107 35 40 194 233 127 130 101 89 116 122 124 114 101 90 75 64 53 57 52 70 70 41 18 15 26 45 37 31 30 32 31 28 36 33 29 29 34 35 39 41 38 46 33 29 38 37 36 38 37 38 30 21 17 22 25 30 32 34 30 31 30 25 27 27 24 21 21 19 19 18 13 14 14 10 8 9 2 9 16 10 2
326 117 82 55 40 87 128 91 42 5 69 87 93 85 80 78 74 42 57 67 101 97 106 90 87 98 108 113 109 93 82 74 67 59 42 56 48 60 38 18 15 31 26 29 31 36 31 35 40 33 33 39 44 44 44 41 39 40 43 38 38 40 37 39 38 35 35 30 22 19 29 29 31 30 31 28 29 25 28 26 26 22 21 18 12 17 13 13 13 11 5 6 358 2 14 10 360
337 64 61 56 14 108 102 96 81 59 70 82 102 135 120 146 89 66 83 91 99 97 97 99 99 102 105 99 95 95 92 89 87 76 59 46 43 58 50 33 24 22 37 34 34 31 34 38 34 35 41 43 43 47 47 48 43 39 43 45 44 43 40 39 36 35 32 30 26 20 30 30 29 27 28 29 27 26 27 24 24 25 23 18 9 14 14 10 10 12 4 0 360 359 8 9 1
15 87 61 74 77 86 98 105 96 87 81 107 110 89 44 47 124 112 102 121 126 122 115 109 104 100 98 100 104 107 106 106 102 98 88 74 78 67 63 61 44 22 39 34 32 38 38 36 35 37 38 42 43 43 50 48 44 39 40 43 45 45 46 43 39 35 35 30 26 24 22 31 29 26 25 28 22 27 25 21 21 23 22 20 10 9 14 6 7 9 4 358 358 355 4 6 360
347 75 105 111 108 116 112 115 118 114 114 124 91 90 100 106 106 73 132 136 138 133 130 126 120 110 104 100 97 104 109 112 114 113 105 103 93 82 65 61 45 48 45 46 41 37 42 43 42 44 43 46 45 47 50 50 43 46 42 42 43 43 45 45 42 40 36 31 30 23 21 26 29 25 23 24 28 26 22 24 21 19 21 17 14 8 11 8 3 1 3 358 353 352 2 2 0
306 101 65 125 109 122 156 138 135 141 146 161 116 133 133 150 258 170 156 145 144 141 140 143 134 128 123 114 103 95 100 105 115 113 113 106 91 85 86 67 60 52 48 52 45 40 46 48 47 46 49 53 49 54 50 50 50 49 50 47 45 46 42 46 44 44 39 35 30 25 23 23 25 28 23 23 31 29 24 21 21 15 17 18 16 8 8 10 358 358 1 355 351 348 357 360 3
282 220 114 103 152 158 169 158 153 152 167 180 130 130 131 195 187 208 155 155 155 150 143 143 135 128 127 127 124 117 108 107 102 107 116 116 100 99 80 89 74 53 53 45 40 41 47 52 51 47 50 53 59 55 57 55 52 52 49 49 49 45 46 42 42 42 43 39 31 28 25 23 24 22 26 20 28 30 28 21 18 15 16 15 14 8 8 8 1 356 358 356 350 344 350 1 7
207 297 229 159 198 218 168 195 176 191 165 163 147 123 204 180 221 113 140 147 153 146 149 154 148 142 138 134 132 135 133 126 118 123 110 109 107 103 95 77 93 83 66 56 49 45 43 49 53 53 55 55 56 61 58 57 55 53 53 50 52 53 47 46 46 41 43 39 35 30 29 27 22 21 21 25 26 26 31 24 17 16 11 10 14 11 8 6 359 359 358 358 352 351 348 359 11
307 237 274 192 209 234 215 193 187 207 157 161 163 285 242 163 110 136 142 155 156 159 166 166 154 152 152 149 142 136 138 133 130 125 130 128 116 111 105 84 84 85 83 74 62 50 48 55 60 60 59 62 62 60 58 56 52 57 54 53 56 55 52 47 48 44 42 41 35 34 30 29 24 17 19 23 24 25 29 25 19 11 7 12 11 12 12 5 1 360 356 358 359 354 353 354 8
251 244 230 263 274 260 198 186 178 207 149 166 193 245 261 165 154 150 160 159 165 169 170 170 166 162 157 155 150 145 142 147 137 127 128 129 124 118 106 102 100 100 92 83 74 63 61 64 72 68 65 62 64 66 64 64 59 53 60 57 52 53 54 54 48 45 42 35 37 33 32 31 23 18 14 22 26 27 24 25 16 10 7 13 14 12 14 8 1 1 354 358 354 354 353 355 8
203 230 221 225 239 268 182 181 179 187 162 175 178 252 267 167 170 159 164 169 175 176 177 178 175 172 170 167 163 157 152 144 140 142 136 138 135 124 122 109 100 103 102 97 95 80 66 72 75 79 75 74 71 70 75 71 67 65 59 60 58 57 59 55 52 48 44 41 33 35 31 32 25 19 13 14 27 28 25 20 18 4 10 14 15 9 12 10 2 359 354 356 352 353 352 354 9
219 219 252 277 272 236 143 198 194 199 143 189 173 245 122 128 157 170 168 178 190 186 179 181 178 177 174 171 170 163 153 158 158 157 158 149 138 132 123 114 103 99 105 111 109 106 95 76 75 85 89 88 85 86 85 84 81 78 70 66 60 60 62 59 54 50 48 41 38 32 28 31 24 20 17 9 16 28 25 23 15 5 8 11 20 11 9 12 1 359 351 354 356 348 344 356 0
277 193 225 231 240 215 186 165 198 203 151 195 211 228 260 108 155 173 178 183 193 201 181 180 181 179 175 175 173 164 169 167 167 163 162 148 138 128 121 122 116 107 103 104 108 109 101 89 77 81 76 72 75 81 84 87 93 90 87 81 73 65 59 58 55 49 43 42 37 34 29 26 28 21 16 14 7 22 27 26 15 8 6 9 22 16 6 11 2 357 353 349 352 349 343 0 358
241 297 280 238 250 256 245 154 188 206 192 209 205 226 244 152 168 179 184 188 195 200 184 184 182 176 179 178 175 173 174 173 168 161 153 144 140 136 131 130 127 122 116 119 121 118 115 107 92 84 86 92 109 107 111 119 115 104 91 84 84 76 67 60 55 54 49 42 41 40 33 29 25 22 21 14 14 15 17 22 21 9 3 6 19 21 7 8 7 359 354 349 348 348 345 9 355
291 305 329 327 318 307 315 59 133 192 196 221 226 235 234 179 177 180 184 193 195 199 189 183 184 184 183 181 177 175 171 168 155 153 149 150 149 145 142 139 138 133 127 125 123 119 117 110 98 74 48 87 64 58 110 93 56 80 100 97 89 85 81 70 61 57 50 42 43 36 37 32 22 25 20 19 17 15 13 16 21 11 8 4 12 25 11 5 8 0 355 353 347 347 346 12 348
289 323 284 288 295 288 298 153 146 190 226 217 232 245 254 239 181 185 184 185 197 204 196 190 189 187 186 183 180 170 165 153 144 148 154 153 150 149 145 145 144 138 131 128 120 114 113 110 108 89 56 26 72 71 23 49 111 103 78 83 80 75 78 75 70 64 54 52 39 43 38 33 33 21 23 25 18 19 14 12 18 15 10 5 10 23 18 7 11 5 353 350 350 345 345 3 348
317 297 294 295 287 284 276 251 141 148 177 244 239 248 251 258 189 180 171 179 202 198 201 198 191 190 186 180 174 169 149 121 142 151 152 150 151 150 145 149 148 142 140 133 125 117 103 99 99 99 81 57 45 56 67 53 29 51 89 69 63 62 64 72 73 75 78 63 54 43 41 38 33 27 22 24 23 22 14 12 15 14 9 9 8 14 26 8 11 5 356 354 353 345 345 349 354
295 285 298 280 261 266 271 105 155 153 138 274 272 273 267 261 240 165 177 193 201 200 197 197 186 188 183 180 171 161 141 151 155 159 155 157 155 155 152 155 150 140 136 132 126 118 111 97 91 88 82 66 50 50 53 66 54 33 59 104 107 96 93 96 99 95 93 84 64 47 40 39 32 34 22 21 26 23 20 14 10 10 10 14 4 12 21 7 13 4 1 357 350 347 350 339 0
265 277 240 241 260 259 270 160 141 189 218 276 298 293 272 274 258 200 193 192 197 192 197 199 188 186 184 180 172 166 154 159 166 165 164 162 160 159 159 151 142 139 136 133 126 114 107 101 98 90 82 70 58 64 89 73 84 86 62 53 84 99 120 120 111 93 78 84 74 60 46 39 40 36 30 21 27 25 26 16 5 11 12 13 8 6 15 9 7 6 0 359 355 351 352 339 349
237 232 250 261 264 263 254 26 208 179 237 257 268 268 271 247 248 241 171 181 181 188 195 204 184 178 175 169 170 168 162 162 163 164 167 163 166 167 157 149 142 145 139 135 125 118 112 111 102 95 89 80 60 49 67 140 146 124 96 110 130 122 97 67 67 76 82 67 81 74 58 43 49 42 38 26 24 30 24 20 11 10 11 12 6 10 14 6 6 4 358 359 354 357 345 340 344
264 244 248 244 239 258 289 104 154 257 272 207 156 309 245 217 226 236 142 172 203 191 191 199 188 177 171 177 171 156 164 165 166 167 168 166 166 159 154 153 153 141 132 123 127 121 119 115 109 96 84 71 54 34 41 36 42 60 158 177 172 120 85 63 60 50 49 64 49 95 85 70 52 47 47 32 29 27 24 24 12 12 11 7 10 11 11 5 2 358 360 358 348 356 342 341 346
268 272 360 18 348 359 326 302 329 275 257 26 187 179 284 233 294 209 159 188 210 183 197 196 192 187 182 175 169 164 164 163 161 162 162 166 166 159 156 156 149 140 133 129 124 123 113 104 103 97 90 81 67 31 23 59 62 68 60 54 54 79 103 100 72 73 60 64 90 66 99 84 73 58 41 44 34 23 31 20 18 11 9 5 12 7 13 6 354 350 356 351 354 355 343 356 349
251 43 346 18 307 292 274 284 252 265 296 233 186 198 262 287 225 236 160 185 209 202 202 200 198 191 185 174 168 168 168 166 161 165 165 168 166 164 160 155 149 144 133 130 126 122 121 113 104 95 86 81 65 56 29 42 89 87 78 79 71 65 89 96 101 90 102 76 67 82 66 90 77 69 54 45 34 26 24 23 20 7 9 8 17 1 13 359 352 347 351 352 356 355 348 354 355
168 322 23 313 359 291 305 286 265 268 308 262 199 218 279 254 325 107 148 184 226 224 205 203 198 190 183 174 169 167 167 164 163 164 167 168 164 161 158 153 144 136 139 138 134 126 119 114 107 102 100 92 81 72 69 50 61 53 56 85 104 94 86 102 93 96 70 100 55 78 75 78 77 72 70 55 42 26 17 32 12 11 5 13 15 1 8 1 351 350 345 353 353 356 344 1 358
70 338 179 267 212 259 250 247 265 280 259 259 233 171 226 272 187 136 33 283 248 230 208 201 194 185 181 175 166 165 160 162 164 161 163 162 158 160 154 141 135 140 139 133 128 127 126 125 121 115 109 100 95 89 84 72 59 65 69 56 65 61 48 78 102 75 56 57 66 61 64 60 73 55 66 64 52 27 4 39 15 11 5 12 13 2 5 358 351 349 338 345 345 359 340 354 351
120 311 311 282 241 240 233 234 265 279 247 253 236 222 212 281 154 193 166 216 211 221 160 186 180 180 181 175 165 168 165 162 161 160 161 155 158 155 151 145 143 139 137 135 134 137 133 130 128 117 111 114 107 97 92 83 67 71 80 79 72 72 65 52 52 87 77 20 69 34 60 46 72 58 70 43 68 29 352 28 37 6 0 21 10 6 360 350 347 340 331 339 346 342 336 338 349
58 295 269 286 271 209 224 238 178 221 264 252 219 212 219 241 275 186 212 125 176 180 184 170 176 181 178 171 166 166 161 160 157 158 158 156 157 154 148 147 146 142 140 143 143 139 140 136 132 125 119 118 119 107 96 94 98 91 87 83 79 66 58 65 72 58 75 39 69 34 34 48 34 70 78 49 71 31 347 22 22 4 7 8 14 357 355 344 334 332 326 329 325 326 316 334 344
207 214 252 242 305 356 235 173 229 221 253 311 32 327 238 235 246 247 163 126 44 14 261 172 168 170 165 165 163 161 155 158 160 160 160 164 161 158 156 153 148 151 153 150 148 147 142 139 137 136 133 125 119 119 107 105 111 105 95 99 101 88 67 81 90 51 50 55 48 36 29 40 25 49 38 58 58 34 352 5 6 0 355 351 343 335 307 334 316 308 309 312 306 311 294 323 343
187 201 191 242 238 236 260 243 242 259 182 340 44 31 272 314 319 6 77 41 33 31 16 127 152 162 161 157 155 150 155 161 162 163 164 166 161 160 160 156 156 156 156 154 153 152 148 147 146 141 138 135 127 126 123 113 100 94 82 68 85 87 100 95 82 77 40 64 46 24 43 37 43 12 51 24 57 14 350 335 352 350 309 311 329 304 328 308 300 300 308 307 293 276 293 339 292
209 201 211 240 275 288 286 277 269 282 297 288 100 59 228 116 228 37 100 69 56 22 35 87 103 124 131 136 134 147 157 165 166 166 167 165 163 162 162 160 161 160 159 157 157 152 147 151 149 146 142 141 138 134 133 131 116 105 105 92 58 74 60 81 93 83 41 68 14 63 12 44 48 4 35 16 36 357 322 344 318 318 324 314 318 322 311 317 301 310 311 294 288 290 319 295 273
200 202 245 268 243 4 253 309 318 320 311 297 174 198 278 261 125 108 86 99 73 53 81 101 106 114 127 133 152 163 166 166 168 165 165 166 162 163 162 163 162 161 161 157 156 151 154 154 148 147 146 144 142 133 131 126 124 109 112 113 104 83 68 42 87 78 39 80 29 50 10 39 45 8 340 39 347 335 323 321 323 313 292 307 288 302 306 296 304 302 285 286 288 305 294 285 292
336 95 218 216 336 291 322 300 276 270 266 262 182 261 257 96 96 112 135 84 67 103 115 116 127 129 136 156 164 168 171 169 170 170 168 165 163 168 165 164 162 161 161 161 159 158 158 151 151 148 145 141 140 139 131 125 126 128 113 95 98 89 97 63 78 87 94 59 81 358 59 333 61 345 22 340 307 317 321 314 293 285 295 292 291 282 278 267 272 281 278 277 286 283 284 277 279
92 254 139 280 302 86 170 272 321 259 266 273 281 271 289 277 278 132 141 126 142 171 184 138 142 148 163 175 174 172 173 173 167 167 166 168 167 168 164 165 164 163 160 160 159 157 156 151 152 147 147 146 147 138 132 133 137 128 122 122 109 119 88 112 94 111 41 79 324 91 354 31 357 337 313 293 307 311 308 301 308 306 304 299 305 298 285 290 278 267 269 274 270 265 264 268 276
246 286 17 68 273 311 190 329 253 259 239 273 267 269 271 255 273 116 256 200 196 172 178 163 167 181 182 176 174 170 168 168 171 171 170 169 170 170 165 166 160 158 159 157 154 152 149 147 147 148 147 148 143 139 129 128 128 129 128 116 117 108 111 84 66 82 10 192 161 5 16 299 345 302 313 326 325 302 300 308 305 303 298 304 300 296 291 281 281 278 278 274 268 265 282 292 288
86 27 286 187 83 250 269 192 289 318 287 303 280 298 268 246 205 305 185 201 178 168 177 201 193 190 184 179 175 175 174 173 172 171 170 171 168 168 166 163 159 160 158 156 153 150 149 147 149 148 143 139 137 135 138 140 131 121 125 121 114 117 93 97 30 68 353 341 299 329 303 330 293 348 343 314 308 306 304 305 307 300 298 293 290 284 286 278 276 268 265 269 276 296 294 278 275
203 149 243 237 206 60 69 320 221 235 266 253 284 286 273 219 256 132 161 181 180 174 193 199 199 193 187 181 176 176 172 173 173 169 168 168 167 164 161 156 153 152 150 150 151 152 149 147 151 147 144 143 142 143 137 146 127 135 139 134 123 113 108 124 124 50 226 264 267 279 338 294 337 313 296 296 289 297 302 296 292 291 284 277 274 274 269 268 261 258 258 259 267 266 263 262 261
185 183 207 191 196 219 213 256 193 208 232 250 250 260 276 245 137 162 150 182 172 187 177 196 194 184 183 177 175 170 171 171 171 169 166 165 165 161 154 151 152 150 153 151 151 150 149 150 148 142 143 144 147 141 136 120 115 114 121 123 128 113 132 121 148 261 255 262 268 273 270 321 297 271 282 282 281 278 279 279 276 276 278 275 273 269 265 260 258 259 260 253 256 256 254 257 251